| time (UTC) | temp F | wind direction | speed MPH | gust MPH | rain 1hr in | rain 24hr in | rain mn in | humidity % | barometer mb |
| 20260503024539 | 57 | 8 | 1.0 | 2.0 | 0.00 | 0.00 | 0.00 | 51 | 1015.2 |
| 20260503023036 | 57 | 35 | 0.0 | 2.0 | 0.00 | 0.00 | 0.00 | 48 | 1015.1 |
| 20260503021534 | 57 | 77 | 0.0 | 2.0 | 0.00 | 0.00 | 0.00 | 48 | 1014.9 |
| 20260503020032 | 58 | 85 | 1.0 | 3.0 | 0.00 | 0.00 | 0.00 | 47 | 1014.9 |
| 20260503014531 | 59 | 67 | 2.0 | 3.0 | 0.00 | 0.00 | 0.00 | 46 | 1015.0 |
| 20260503013029 | 61 | 84 | 2.0 | 5.0 | 0.00 | 0.00 | 0.00 | 42 | 1015.0 |
| 20260503011532 | 64 | 124 | 4.0 | 7.0 | 0.00 | 0.00 | 0.00 | 39 | 1015.0 |
| 20260503010027 | 64 | 112 | 3.0 | 5.0 | 0.00 | 0.00 | 0.00 | 39 | 1015.1 |
| 20260503004524 | 64 | 111 | 4.0 | 6.0 | 0.00 | 0.00 | 0.00 | 40 | 1015.1 |
| 20260503003021 | 64 | 257 | 0.0 | 1.0 | 0.00 | 0.00 | 0.00 | 39 | 1015.4 |
| 20260503001519 | 63 | 261 | 2.0 | 7.0 | 0.00 | 0.00 | 0.00 | 39 | 1015.6 |
| 20260503000018 | 63 | 313 | 1.0 | 5.0 | 0.00 | 0.00 | 0.00 | 39 | 1015.7 |
| 20260502234529 | 63 | 122 | 0.0 | 4.0 | 0.00 | 0.00 | 0.00 | 40 | 1015.8 |
| 20260502233014 | 64 | 111 | 2.0 | 5.0 | 0.00 | 0.00 | 0.00 | 39 | 1015.8 |
| 20260502231511 | 65 | 127 | 1.0 | 6.0 | 0.00 | 0.00 | 0.00 | 39 | 1016.0 |
| 20260502230006 | 63 | 120 | 0.0 | 5.0 | 0.00 | 0.00 | 0.00 | 40 | 1016.1 |
| 20260502224505 | 63 | 200 | 0.0 | 7.0 | 0.00 | 0.00 | 0.00 | 40 | 1016.3 |
| 20260502223005 | 63 | 80 | 2.0 | 6.0 | 0.00 | 0.00 | 0.00 | 42 | 1016.4 |
| 20260502221502 | 63 | 70 | 3.0 | 5.0 | 0.00 | 0.00 | 0.00 | 40 | 1016.6 |
| 20260502220146 | 63 | 124 | 1.0 | 5.0 | 0.00 | 0.00 | 0.00 | 40 | 1016.7 |
| 20260502220004 | 63 | 156 | 1.0 | 5.0 | 0.00 | 0.00 | 0.00 | 40 | 1016.6 |
| 20260502214603 | 63 | 127 | 1.0 | 7.0 | 0.00 | 0.00 | 0.00 | 42 | 1016.9 |
| 20260502213102 | 63 | 155 | 1.0 | 4.0 | 0.00 | 0.00 | 0.00 | 42 | 1017.1 |
| 20260502211554 | 62 | 134 | 4.0 | 8.0 | 0.00 | 0.00 | 0.00 | 44 | 1017.3 |
| 20260502210101 | 62 | 105 | 6.0 | 10.0 | 0.00 | 0.00 | 0.00 | 43 | 1017.5 |
| 20260502204559 | 62 | 122 | 2.0 | 11.0 | 0.00 | 0.00 | 0.00 | 43 | 1017.6 |
| 20260502203101 | 63 | 195 | 2.0 | 6.0 | 0.00 | 0.00 | 0.00 | 42 | 1017.7 |
| 20260502201546 | 63 | 329 | 1.0 | 7.0 | 0.00 | 0.00 | 0.00 | 41 | 1017.8 |
| 20260502200043 | 63 | 69 | 0.0 | 8.0 | 0.00 | 0.00 | 0.00 | 42 | 1017.9 |
| 20260502194640 | 63 | 351 | 6.0 | 9.0 | 0.00 | 0.00 | 0.00 | 43 | 1018.1 |
| 20260502193037 | 61 | 25 | 2.0 | 6.0 | 0.00 | 0.00 | 0.00 | 44 | 1018.4 |
| 20260502191540 | 60 | 264 | 2.0 | 10.0 | 0.00 | 0.00 | 0.00 | 45 | 1018.6 |
| 20260502190032 | 60 | 33 | 4.0 | 9.0 | 0.00 | 0.00 | 0.00 | 46 | 1018.7 |
| 20260502184537 | 60 | 351 | 3.0 | 8.0 | 0.00 | 0.00 | 0.00 | 45 | 1018.7 |
| 20260502183028 | 60 | 21 | 3.0 | 9.0 | 0.00 | 0.00 | 0.00 | 45 | 1018.6 |
| 20260502181531 | 61 | 321 | 3.0 | 9.0 | 0.00 | 0.00 | 0.00 | 43 | 1018.7 |
| 20260502163027 | 61 | 42 | 6.0 | 17.0 | 0.00 | 0.00 | 0.00 | 46 | 1018.7 |
| 20260502161510 | 61 | 37 | 6.0 | 14.0 | 0.00 | 0.00 | 0.00 | 46 | 1018.8 |
| 20260502151559 | 59 | 333 | 5.0 | 11.0 | 0.00 | 0.00 | 0.00 | 48 | 1018.8 |
| 20260502123015 | 50 | 44 | 6.0 | 11.0 | 0.00 | 0.00 | 0.00 | 54 | 1018.0 |
| 20260502121511 | 50 | 68 | 8.0 | 16.0 | 0.00 | 0.00 | 0.00 | 54 | 1017.6 |
| 20260502114503 | 50 | 64 | 14.0 | 20.0 | 0.00 | 0.00 | 0.00 | 53 | 1017.0 |
| 20260502113100 | 50 | 68 | 14.0 | 21.0 | 0.00 | 0.00 | 0.00 | 53 | 1016.9 |
| 20260502111555 | 50 | 73 | 13.0 | 21.0 | 0.00 | 0.00 | 0.00 | 53 | 1016.8 |
| 20260502110049 | 51 | 77 | 16.0 | 20.0 | 0.00 | 0.00 | 0.00 | 51 | 1016.5 |
| 20260502104543 | 51 | 68 | 14.0 | 19.0 | 0.00 | 0.00 | 0.00 | 50 | 1016.1 |
| 20260502103039 | 52 | 77 | 15.0 | 20.0 | 0.00 | 0.00 | 0.00 | 48 | 1015.9 |
| 20260502101534 | 53 | 79 | 14.0 | 19.0 | 0.00 | 0.00 | 0.00 | 48 | 1015.9 |
| 20260502091522 | 49 | 300 | 1.0 | 5.0 | 0.00 | 0.00 | 0.00 | 49 | 1015.6 |
| 20260502070058 | 50 | 340 | 4.0 | 6.0 | 0.00 | 0.00 | 0.00 | 44 | 1015.2 |
| 20260502064550 | 52 | 345 | 6.0 | 8.0 | 0.00 | 0.00 | 0.00 | 43 | 1015.1 |
| 20260502063044 | 49 | 354 | 5.0 | 6.0 | 0.00 | 0.00 | 0.00 | 46 | 1015.1 |
| 20260502061540 | 48 | 47 | 2.0 | 5.0 | 0.00 | 0.00 | 0.00 | 45 | 1015.0 |
| 20260502060034 | 49 | 32 | 1.0 | 6.0 | 0.00 | 0.00 | 0.00 | 43 | 1015.0 |
| 20260502054532 | 56 | 38 | 4.0 | 11.0 | 0.00 | 0.00 | 0.00 | 36 | 1015.0 |
| 20260502053031 | 58 | 328 | 8.0 | 11.0 | 0.00 | 0.00 | 0.00 | 35 | 1015.0 |
| 20260502051530 | 58 | 327 | 8.0 | 13.0 | 0.00 | 0.00 | 0.00 | 34 | 1015.0 |
| 20260502050032 | 57 | 359 | 9.0 | 13.0 | 0.00 | 0.00 | 0.00 | 35 | 1015.0 |
| 20260502044524 | 56 | 354 | 8.0 | 10.0 | 0.00 | 0.00 | 0.00 | 34 | 1015.0 |
| 20260502043023 | 56 | 348 | 6.0 | 9.0 | 0.00 | 0.00 | 0.00 | 33 | 1014.9 |
| 20260502041521 | 56 | 340 | 6.0 | 7.0 | 0.00 | 0.00 | 0.00 | 32 | 1014.9 |
| 20260502040018 | 55 | 341 | 5.0 | 8.0 | 0.00 | 0.00 | 0.00 | 32 | 1014.9 |
| 20260502034527 | 56 | 323 | 5.0 | 8.0 | 0.00 | 0.00 | 0.00 | 32 | 1014.8 |
| 20260502033015 | 57 | 321 | 5.0 | 8.0 | 0.00 | 0.00 | 0.00 | 30 | 1014.6 |
| 20260502031512 | 58 | 327 | 5.0 | 7.0 | 0.00 | 0.00 | 0.00 | 29 | 1014.5 |
| 20260502030010 | 60 | 325 | 5.0 | 8.0 | 0.00 | 0.00 | 0.00 | 27 | 1014.4 |